Погода в Валке

Латвия     57°46′30″N   26°01′14″E
темп.,
°C
ветер,
м/с
пор.,
м/с
влажн.,
%
обл.,
%
осадки,
мм/ч
давл.,
гПа
погр.,
м
5 марта, пт
пт523:00−2з398011 0.0 1009717
02:00−3зсз488754 0.1 1010641
05:00−3ссз5973100 0.6 10111069
08:00−4ссз495767 0.6 10121095
11:00−2ссз474330 0.0 10141872
14:00−1сз364065 0.1 10151742
17:00−3ссв2578100 0.3 1016523
20:00−4с266359 0.3 1018287
6 марта, сб
сб623:00−5сз14690 0.0 1020140
02:00−5зсз25730 0.0 1022194
05:00−6зсз25790 0.0 1021195
08:00−6зюз37770 0.0 1021353
11:00−1зюз595424 0.0 10201242
14:00+1зюз7135362 0.0 10161473
17:00+1зюз71649100 0.0 10121539
20:000зюз81859100 0.0 10081393
7 марта, вс
вс723:000зюз81693100 1.0 10031240
02:00−2сз61286100 4.5 10021055
05:00−5зсз5155857 0.1 10032158
08:00−5з5135749 0.1 10031562
11:00−1з8145556 0.1 10021974
14:000з8144674 0.3 9992211
17:00−2зсз61358100 0.3 9981810
20:00−4сз61366100 0.5 10011620
8 марта, пн
пн823:00−6ссз4106385 0.1 10051238
02:00−8ссз397256 0.1 1008741
05:00−8сз278332 0.0 1009476
08:00−8с477766 0.3 1011849
11:00−7ссз4767100 0.1 10131093
14:00−6с4760100 0.1 10161144
17:00−7с486399 0.0 10181026
20:00−9с397261 0.0 1020611
9 марта, вт
вт923:00−10сз25800 0.0 1022181
02:00−10сз24830 0.0 102396
05:00−10зсз22830 0.0 102456
08:00−9зюз25750 0.0 1025196
11:00−3з36540 0.0 1025721
14:000з47480 0.0 10251192
17:00−2зюз485646 0.0 1024983
20:00−4зюз4126147 0.0 1025483